Rolla, MO

5:12 AM CDT on June 20, 2018 (GMT -0500)
Rolla National

Weather History for KVIH - June, 2018

Change the Weather History Date:

Thursday, June 14, 2018

  Actual Average Record
Temperature  
Mean Temperature 79 °F 72 °F  
Max Temperature 89 °F 82 °F 95 °F (1952)
Min Temperature 68 °F 62 °F 46 °F (1903)
Degree Days  
Heating Degree Days 0 0  
Month to date heating degree days 12  
Since 1 June heating degree days 12  
Since 1 July heating degree days 4846  
Cooling Degree Days 14 7  
Month to date cooling degree days 152 84  
Year to date cooling degree days 379 191  
Since 1 June cooling degree days 152 84  
Growing Degree Days 28 (Base 50)    
Moisture  
Dew Point 66 °F    
Average Humidity 75    
Maximum Humidity 87    
Minimum Humidity 63    
Precipitation  
Precipitation 0.36 in 0.17 in 1.52 in (2001)
Month to date precipitation 1.84 2.28  
Year to date precipitation 19.69 19.09  
Sea Level Pressure  
Sea Level Pressure 30.00 in    
Wind  
Wind Speed 9 mph (SE)    
Max Wind Speed 22 mph    
Max Gust Speed 28 mph    
Visibility 9 miles    
Events Rain , Thunderstorm    
T = Trace of Precipitation, MM = Missing Value Source: NWS Daily Summary

Daily Weather History Graph

Daily Weather History Graph

Search for Another Location

Airport or City:

Astronomy

Jun. 14, 2018 Rise Set
Actual Time 5:43 AM CDT 8:31 PM CDT
Civil Twilight 5:12 AM CDT 9:02 PM CDT
Nautical Twilight 4:32 AM CDT 9:42 PM CDT
Astronomical Twilight 3:47 AM CDT 10:27 PM CDT
Moon 6:40 AM CDT (6/14) 9:33 PM CDT (6/14)
Length of Visible Light 15h 50m
Length of Day
14h 47m
New Moon, 1% of the Moon is Illuminated
Jun 14
New Moon
Jun 20
First Quarter
Jun 27
Full
Jul 6
Last Quarter
Jul 12
New

Hourly Weather History & Observations

Time (CDT) Temp. Heat Index Dew Point Humidity Pressure Visibility Wind Dir Wind Speed Gust Speed Precip Events Conditions
12:53 AM 71.1 °F - 63.0 °F 75% 30.01 in 10.0 mi East 9.2 mph - N/A   Clear
1:53 AM 70.0 °F - 63.0 °F 78% 30.02 in 10.0 mi East 9.2 mph - N/A   Clear
2:53 AM 69.1 °F - 63.0 °F 81% 30.01 in 10.0 mi ESE 8.1 mph - N/A   Clear
3:53 AM 69.1 °F - 64.0 °F 84% 30.01 in 10.0 mi ESE 9.2 mph - N/A   Clear
4:53 AM 68.0 °F - 64.0 °F 87% 29.99 in 10.0 mi ESE 9.2 mph - N/A   Clear
5:53 AM 68.0 °F - 64.0 °F 87% 30.01 in 10.0 mi ESE 8.1 mph - N/A   Clear
6:53 AM 69.1 °F - 64.9 °F 87% 30.01 in 10.0 mi East 6.9 mph - N/A   Clear
7:53 AM 71.1 °F - 64.9 °F 81% 30.01 in 10.0 mi ESE 9.2 mph - N/A   Clear
8:53 AM 75.0 °F - 69.1 °F 82% 30.02 in 10.0 mi SSE 8.1 mph - N/A   Clear
9:53 AM 82.0 °F 86.7 °F 72.0 °F 71% 30.01 in 10.0 mi South 6.9 mph - N/A   Clear
10:53 AM 82.9 °F 88.8 °F 73.0 °F 72% 30.01 in 10.0 mi South 4.6 mph - N/A   Clear
11:53 AM 86.0 °F 95.1 °F 75.0 °F 70% 30.01 in 10.0 mi SSW 4.6 mph - N/A   Clear
12:53 PM 87.1 °F 95.4 °F 73.9 °F 65% 30.00 in 10.0 mi Calm Calm - N/A   Scattered Clouds
1:21 PM 89.1 °F 99.1 °F 75.0 °F 63% 30.03 in 10.0 mi North 4.6 mph - N/A Thunderstorm Thunderstorm
1:51 PM 75.2 °F - 66.2 °F 73% 30.04 in 1.8 mi West 19.6 mph 27.6 mph 0.13 in Rain , Thunderstorm Heavy Thunderstorms and Rain
1:53 PM 75.0 °F - 64.0 °F 69% 30.01 in 1.5 mi West 18.4 mph 27.6 mph 0.16 in Rain , Thunderstorm Heavy Thunderstorms and Rain
2:02 PM 72.0 °F - 64.0 °F 76% 30.01 in 1.2 mi South 9.2 mph 26.5 mph 0.14 in Rain , Thunderstorm Heavy Thunderstorms and Rain
2:11 PM 73.0 °F - 64.9 °F 76% 30.02 in 3.0 mi SE 9.2 mph - 0.17 in Rain , Thunderstorm Light Thunderstorms and Rain
2:53 PM 80.1 °F 82.9 °F 69.1 °F 69% 29.96 in 10.0 mi East 3.5 mph - 0.20 in Thunderstorm Thunderstorm
3:06 PM 84.9 °F 90.7 °F 72.0 °F 65% 30.00 in 10.0 mi East 6.9 mph - 0.00 in Thunderstorm Mostly Cloudy
3:53 PM 75.9 °F - 68.0 °F 76% 29.98 in 10.0 mi SSE 10.4 mph - 0.00 in Thunderstorm Partly Cloudy
4:53 PM 72.0 °F - 64.0 °F 76% 29.98 in 10.0 mi South 10.4 mph - N/A Thunderstorm Thunderstorm
5:16 PM 72.0 °F - 64.0 °F 76% 29.97 in 10.0 mi SSE 8.1 mph 18.4 mph N/A   Partly Cloudy
5:53 PM 75.9 °F - 66.0 °F 71% 29.99 in 10.0 mi NNE 13.8 mph - 0.00 in Thunderstorm Mostly Cloudy
6:12 PM 73.9 °F - 64.9 °F 73% 30.04 in 10.0 mi ENE 16.1 mph 23.0 mph N/A   Overcast
6:53 PM 73.9 °F - 64.0 °F 71% 29.99 in 10.0 mi East 16.1 mph 23.0 mph N/A   Partly Cloudy
7:53 PM 72.0 °F - 66.0 °F 81% 29.94 in 10.0 mi SE 10.4 mph - N/A   Clear
8:53 PM 70.0 °F - 63.0 °F 78% 29.94 in 10.0 mi ESE 8.1 mph - N/A   Clear
9:53 PM 68.0 °F - 63.0 °F 84% 29.97 in 10.0 mi South 8.1 mph - N/A   Clear
10:53 PM 70.0 °F - 62.1 °F 76% 29.97 in 10.0 mi SSE 9.2 mph - N/A   Clear
11:53 PM 70.0 °F - 60.1 °F 71% 29.96 in 10.0 mi South 5.8 mph - N/A   Clear